Tracking 32420 objects as of 8-Dec-2025
HD Live streaming from Space Station
objects crossing your sky now

GALAXY 36

Track GALAXY 36 now!
GALAXY 36 is classified as:


NORAD ID: 54742
Int'l Code: 2022-170B
Perigee: 35,791.5 km
Apogee: 35,796.5 km
Inclination: 0.0 °
Period: 1,436.1 minutes
Semi major axis: 42164 km
RCS: Unknown
Launch date: December 13, 2022
Source: United States (US)
Launch site: FRENCH GUIANA (FRGUI)
Your satellite tracking list
Your tracking list is empty




NASA's NSSDC Master Catalog

Two Line Element Set (TLE):
1 54742U 22170B   25342.25495201 -.00000183  00000-0  00000-0 0  9991
2 54742   0.0076  17.0792 0000601 263.4805 159.4861  1.00270845 10853
Source of the keplerian elements: AFSPC